When you browse on this site, cookies collect data to enhance your experience and personalize the content and advertising you see.
Visit our Privacy Policy to learn more. By continuing to use the site, you agree to this use of cookies and data.
  • In Czech Republic
  • List of Countries
  • For 7 days
  • Water Temperature
  • Weather Map
  • Weather Widgets
  • user-avatar
    Login

    Hourly Weather Sala

    Today, 19 September, Thursday

    Time Temperature Precipitation Wind Pressure Humidity
    00:00 +19°C° 0 mm 2 mps 759 mmHg 90%
    01:00 +19°C° 0 mm 2 mps 759 mmHg 90%
    02:00 +19°C° 0 mm 2 mps 758 mmHg 90%
    03:00 +19°C° 0 mm 2 mps 758 mmHg 90%
    04:00 +19°C° 0 mm 2 mps 758 mmHg 91%
    05:00 +18°C° 0 mm 2 mps 758 mmHg 92%
    06:00 +18°C° 0 mm 2 mps 758 mmHg 93%
    07:00 +20°C° 0 mm 2 mps 758 mmHg 82%
    08:00 +23°C° 0 mm 2 mps 758 mmHg 72%
    09:00 +25°C° 0 mm 2 mps 759 mmHg 61%
    10:00 +27°C° 0 mm 3 mps 758 mmHg 53%
    11:00 +29°C° 0 mm 3 mps 758 mmHg 46%
    12:00 +32°C° 0 mm 4 mps 758 mmHg 39%
    13:00 +30°C° 0 mm 4 mps 757 mmHg 42%
    14:00 +30°C° 0 mm 5 mps 757 mmHg 44%
    15:00 +30°C° 0 mm 5 mps 756 mmHg 47%
    16:00 +28°C° 0 mm 5 mps 757 mmHg 53%
    17:00 +26°C° 0 mm 4 mps 757 mmHg 59%
    18:00 +25°C° 0 mm 4 mps 757 mmHg 65%
    19:00 +24°C° 0 mm 3 mps 757 mmHg 72%
    20:00 +23°C° 0 mm 2 mps 758 mmHg 79%
    21:00 +21°C° 0 mm 2 mps 758 mmHg 85%
    22:00 +22°C° 0 mm 1 mps 758 mmHg 87%
    23:00 +21°C° 0 mm 1 mps 758 mmHg 89%

    Tomorrow, 20 September, Friday

    Time Temperature Precipitation Wind Pressure Humidity
    00:00 +21°C° 0 mm 1 mps 757 mmHg 90%
    01:00 +21°C° 0 mm 1 mps 757 mmHg 90%
    02:00 +19°C° 0 mm 0 mps 757 mmHg 91%
    03:00 +18°C° 0 mm 0 mps 757 mmHg 91%
    04:00 +18°C° 0 mm 0 mps 757 mmHg 92%
    05:00 +20°C° 0 mm 1 mps 757 mmHg 93%
    06:00 +20°C° 0 mm 1 mps 757 mmHg 93%
    07:00 +21°C° 0 mm 1 mps 757 mmHg 86%
    08:00 +21°C° 0 mm 0 mps 757 mmHg 78%
    09:00 +22°C° 0 mm 0 mps 757 mmHg 70%
    10:00 +26°C° 0 mm 1 mps 757 mmHg 63%
    11:00 +27°C° 0 mm 2 mps 757 mmHg 55%
    12:00 +29°C° 0 mm 3 mps 757 mmHg 48%
    13:00 +28°C° 0 mm 3 mps 756 mmHg 51%
    14:00 +28°C° 0 mm 3 mps 756 mmHg 55%
    15:00 +27°C° 0 mm 3 mps 756 mmHg 58%
    16:00 +26°C° 0 mm 3 mps 756 mmHg 63%
    17:00 +25°C° 0 mm 3 mps 756 mmHg 68%
    18:00 +24°C° 0 mm 3 mps 755 mmHg 73%
    19:00 +24°C° 0 mm 2 mps 756 mmHg 78%
    20:00 +23°C° 0 mm 2 mps 756 mmHg 82%
    21:00 +21°C° 0 mm 2 mps 757 mmHg 87%
    22:00 +22°C° 0 mm 1 mps 757 mmHg 89%
    23:00 +21°C° 0 mm 1 mps 756 mmHg 90%

    Day after tomorrow, 21 September, Saturday

    Time Temperature Precipitation Wind Pressure Humidity
    00:00 +19°C° 0 mm 0 mps 756 mmHg 92%
    01:00 +21°C° 0 mm 1 mps 756 mmHg 92%
    02:00 +21°C° 0 mm 1 mps 756 mmHg 92%
    03:00 +21°C° 0 mm 1 mps 755 mmHg 92%
    04:00 +21°C° 0 mm 1 mps 755 mmHg 91%
    05:00 +19°C° 0 mm 0 mps 755 mmHg 90%
    06:00 +19°C° 0 mm 0 mps 755 mmHg 89%
    07:00 +20°C° 0 mm 0 mps 756 mmHg 81%
    08:00 +22°C° 0 mm 0 mps 756 mmHg 74%
    09:00 +25°C° 0 mm 1 mps 757 mmHg 66%
    10:00 +27°C° 0 mm 1 mps 756 mmHg 58%
    11:00 +28°C° 0 mm 2 mps 756 mmHg 49%
    12:00 +30°C° 0 mm 2 mps 756 mmHg 41%
    13:00 +29°C° 0 mm 3 mps 756 mmHg 43%
    14:00 +29°C° 0 mm 4 mps 756 mmHg 46%
    15:00 +29°C° 0 mm 5 mps 755 mmHg 49%
    16:00 +27°C° 0 mm 4 mps 756 mmHg 55%
    17:00 +26°C° 0 mm 3 mps 756 mmHg 60%
    18:00 +25°C° 0 mm 3 mps 756 mmHg 66%
    19:00 +24°C° 0 mm 2 mps 757 mmHg 72%
    20:00 +23°C° 0 mm 2 mps 757 mmHg 78%
    21:00 +22°C° 0 mm 1 mps 758 mmHg 84%
    22:00 +22°C° 0 mm 1 mps 758 mmHg 85%
    23:00 +21°C° 0 mm 2 mps 758 mmHg 87%

    22 September, Sunday

    Time Temperature Precipitation Wind Pressure Humidity
    00:00 +20°C° 0 mm 2 mps 757 mmHg 88%
    01:00 +20°C° 0 mm 2 mps 757 mmHg 88%
    02:00 +20°C° 0 mm 2 mps 758 mmHg 88%
    03:00 +20°C° 0 mm 2 mps 758 mmHg 88%
    04:00 +20°C° 0 mm 2 mps 758 mmHg 89%
    05:00 +19°C° 0 mm 2 mps 758 mmHg 90%
    06:00 +19°C° 0 mm 2 mps 758 mmHg 91%
    07:00 +21°C° 0 mm 2 mps 758 mmHg 82%
    08:00 +24°C° 0 mm 2 mps 759 mmHg 73%
    09:00 +26°C° 0 mm 2 mps 759 mmHg 64%
    10:00 +27°C° 0 mm 3 mps 759 mmHg 60%
    11:00 +28°C° 0 mm 5 mps 759 mmHg 57%
    12:00 +29°C° 0 mm 6 mps 759 mmHg 53%
    13:00 +29°C° 0 mm 6 mps 759 mmHg 55%
    14:00 +29°C° 0 mm 6 mps 758 mmHg 56%
    15:00 +28°C° 0 mm 6 mps 758 mmHg 57%
    16:00 +27°C° 0 mm 6 mps 758 mmHg 58%
    17:00 +26°C° 0 mm 6 mps 759 mmHg 59%
    18:00 +23°C° 0 mm 5 mps 759 mmHg 60%
    19:00 +22°C° 0 mm 5 mps 759 mmHg 65%
    20:00 +21°C° 0 mm 4 mps 760 mmHg 70%
    21:00 +20°C° 0 mm 3 mps 760 mmHg 75%
    22:00 +20°C° 0 mm 3 mps 760 mmHg 75%
    23:00 +19°C° 0 mm 3 mps 760 mmHg 76%

    23 September, Monday

    Time Temperature Precipitation Wind Pressure Humidity
    00:00 +19°C° 0 mm 3 mps 760 mmHg 77%
    01:00 +19°C° 0 mm 3 mps 759 mmHg 78%
    02:00 +19°C° 0 mm 3 mps 759 mmHg 80%
    03:00 +18°C° 0 mm 3 mps 759 mmHg 82%
    04:00 +18°C° 0 mm 3 mps 759 mmHg 84%
    05:00 +18°C° 0 mm 3 mps 759 mmHg 87%
    06:00 +18°C° 0 mm 3 mps 759 mmHg 90%
    07:00 +19°C° 0 mm 3 mps 759 mmHg 79%
    08:00 +21°C° 0 mm 3 mps 759 mmHg 69%
    09:00 +24°C° 0 mm 3 mps 759 mmHg 58%
    10:00 +26°C° 0 mm 4 mps 759 mmHg 51%
    11:00 +29°C° 0 mm 4 mps 759 mmHg 44%
    12:00 +32°C° 0 mm 5 mps 759 mmHg 37%
    13:00 +32°C° 0 mm 5 mps 758 mmHg 36%
    14:00 +32°C° 0 mm 5 mps 758 mmHg 36%
    15:00 +32°C° 0 mm 6 mps 757 mmHg 35%
    16:00 +29°C° 0 mm 5 mps 758 mmHg 40%
    17:00 +27°C° 0 mm 5 mps 758 mmHg 44%
    18:00 +25°C° 0 mm 4 mps 758 mmHg 49%
    19:00 +24°C° 0 mm 3 mps 758 mmHg 55%
    20:00 +23°C° 0 mm 2 mps 759 mmHg 60%
    21:00 +22°C° 0 mm 1 mps 759 mmHg 66%
    22:00 +21°C° 0 mm 1 mps 759 mmHg 66%
    23:00 +21°C° 0 mm 1 mps 759 mmHg 66%

    24 September, Tuesday

    Time Temperature Precipitation Wind Pressure Humidity
    00:00 +21°C° 0 mm 1 mps 759 mmHg 66%
    01:00 +21°C° 0 mm 1 mps 758 mmHg 67%
    02:00 +21°C° 0 mm 1 mps 758 mmHg 69%
    03:00 +20°C° 0 mm 1 mps 758 mmHg 71%
    04:00 +20°C° 0 mm 1 mps 758 mmHg 74%
    05:00 +20°C° 0 mm 1 mps 758 mmHg 76%
    06:00 +20°C° 0 mm 1 mps 758 mmHg 79%
    07:00 +22°C° 0 mm 1 mps 758 mmHg 70%
    08:00 +24°C° 0 mm 2 mps 759 mmHg 62%
    09:00 +26°C° 0 mm 2 mps 759 mmHg 54%
    10:00 +28°C° 0 mm 2 mps 759 mmHg 48%
    11:00 +29°C° 0 mm 3 mps 759 mmHg 42%
    12:00 +31°C° 0 mm 3 mps 759 mmHg 36%
    13:00 +31°C° 0 mm 3 mps 758 mmHg 36%
    14:00 +32°C° 0 mm 4 mps 758 mmHg 37%
    15:00 +32°C° 0 mm 4 mps 757 mmHg 37%
    16:00 +29°C° 0 mm 4 mps 757 mmHg 45%
    17:00 +27°C° 0 mm 3 mps 758 mmHg 54%
    18:00 +25°C° 0 mm 3 mps 758 mmHg 62%
    19:00 +24°C° 0 mm 3 mps 758 mmHg 71%
    20:00 +23°C° 0 mm 2 mps 759 mmHg 79%
    21:00 +21°C° 0 mm 2 mps 759 mmHg 87%
    22:00 +21°C° 0 mm 2 mps 759 mmHg 89%
    23:00 +21°C° 0 mm 1 mps 759 mmHg 90%
    Show more